Timeline UpdatesTrip UpdatesNews PostsPvt Posts♥♥Travel TipsAdmin PostsConv PostsFollowed PostsChat RequestsBlog PostsPNR Posts

Disclaimer
Search
 
 
Thu Oct 23, 2014 06:08:07 ISTHomeTrainsΣChainsAtlasPNRForumGalleryNewsFAQTripsMembersLoginFeedback
No Recent News for this Train
Other Trains in the News **new
Latest...
.
Tue Jan 15, 2013 (02:24AM)
⇐ Return Journey: Train# 54251

54252/Saharanpur-Lucknow Passenger

Time-Table HAS CHANGED.
Oct 18 (7:12AM)
Change Departure Station:
Change Arrival Station:
Post a Train Travel TipPost a Train Travel Tip **new
Post a Comment/Question/Picture/VideoPost a Comment/Question/Picture/Video
Pantry/Catering
✕ NO Pantry Car
✕ NO Catering
RSA - Rake Sharing
54232/54233/54251/54252/54253/54254
Rake/Coach Composition
.
Loco
GZB WAP1
News    PNR    Forum    Time-Table    Availability    Fare Chart    Map    Arr/Dep History    Trips    Gallery    ΣChains    X/O    Timeline    
Travel Time: 15h 20m    55 halts    Distance: 412 km    Avg Speed: 26 km/hr
Type: Passenger
Zone: NR/Northern
Departs @ 12:45 (Avg 50m late)
Platform# ???
SMTWTFS
Bundki/BEK 
Arrives @ 04:05 +1 night (Avg 1h 39m late)
Platform# 7
SMTWTFS
Lucknow Charbagh NR/LKO 

55 halts. 66 intermediate Stations between Bundki and Lucknow Charbagh NR

Show ALL intermediate Stations  Show Old Time-Table

#TrkCodeStation NameX/OArrivesAvgDepartsAvgHaltPFDay#KmSpeedElevZoneAddress
1/==/SRESaharanpur Junction (6)  -08:15+0--1-112.435276mNRSaharanpur, Uttar Pradesh
2/==/BAEBaliakheri  08:27 08:32+908:29 08:34+102m--1-102.443274mNRSaharanpur, Uttar Pradesh
3/==/CDLChodialaX  08:45 08:49+1008:47 08:51+102m--1-91.844270mNRMDR 163W, Uttar Pradesh
4/==/IQBIqbalpurXO  08:55 09:00+1108:57 09:02+152m--1-85.221267mNRNational Highway 73, Uttar Pradesh
5/==/RKRoorkee (3)X  09:06 09:23+609:08 09:25+142m11-77.717264mNRRoorkee - 247667, Uttarakhand
6/==/DNRADhandhera (2)X  09:19 09:35+1309:21 09:37+132m--1-74.943267mNRRoorkee - 247667, Uttarakhand
7/==/LDRLandaura (2)  09:27 09:44+1309:29 09:46+182m--1-69.943261mNRHaridwar, Uttarakhand
8/==/DSNIDausni (2)X  09:35 09:53+1809:37 09:55+202m--1-64.920244mNRLaksar, Uttarakhand
9/==/LRJLaksar Junction (4)XO  10:10+1311:15+2465m11-59.969238mNRLaksar, Uttarakhand
10/==/RSIRaisi  11:22 11:25+2811:24 11:27+292m--1-48.534231mNRLaksar, Uttarakhand
11/==/BLWBalawali (2)  11:33 11:37+2811:35 11:39+302m--1-42.841242mNRNational Highway 119, Uttar Pradesh
12/==/CNKChandok (2)  11:43 11:49+2811:45 11:51+282m--1-35.992257mNRChandok, Uttar Pradesh
13|--|MZMMuzzampur Narayan (3)  11:53 11:59+3111:55 12:01+322m--1-23.740258mNRJunction Point - NBD/LRJ/BJO, Uttar Pradesh
14|--|FZLFazalpur (2)  12:02 12:09+3112:04 12:11+312m--1-18.431256mNRState Highway 49, Uttar Pradesh
15|--|NBDNajibabad Junction (3)  12:15 12:22+2412:25 12:27+2610 5m31-12.678269mNRNajibabad, Uttar Pradesh
16/==/MSDRMurshadpurX  12:31 12:34+3612:33 12:36+372m--1-3.631258mNRNagina, Uttar Pradesh
17/==/BEKBundki»X  12:40 12:43+3912:42 12:45+502m--10.059255mNRNagina, Uttar Pradesh
18/==/NGGNagina (3)X  12:50 12:55+5312:55 12:57+555 2m--19.835247mNRNagina, Uttar Pradesh
19/==/PNIPuraini  13:05 13:07+5313:07 13:09+542m--115.742246mNRDhampur, Uttar Pradesh
20/==/HBWHabibwala  13:14 13:17+5413:16 13:19+562m--121.345239mNRNagina, Uttar Pradesh
21/==/DPRDhampur  13:22 13:26+5413:27 13:28+1:005 2m--126.635236mNRDhampur, Uttar Pradesh
22/==/CAJChakraj MalX  13:38 13:40+1:0113:40 13:42+1:022m--133.744229mNRNagina, Uttar Pradesh
23/==/SEOSeoharaO  13:45 13:51+1:0213:50 13:53+1:105 2m--140.338224mNRSeohara, Uttar Pradesh
24/==/MWEMewa NawadaX  14:08 14:09+1:0714:10 14:11+1:062m--150.449221mNRSahaspur, Uttar Pradesh
25/==/KNTKanth  14:15 14:19+1:0714:20 14:21+1:135 2m--156.940221mNRKanth, Uttar Pradesh
26/==/MTBMatlabpur  14:34+1:1114:36+1:172m--165.636216mNRMoradabad, Uttar Pradesh
27/==/AWPAghwanpur  14:48 14:52+1:1514:50 14:54+1:162m--175.243212mNRMoradabad, Uttar Pradesh
28/==/HRHHarthalaX  14:56 15:02+1:1514:59 15:04+1:193 2m--180.98206mNRMoradabad, Uttar Pradesh
29/==/MBMoradabad Junction (7)XO15:45+4117:00+2975m--186.345201mNRMoradabad, Uttar Pradesh
30/==/KGFKathghar  17:06 17:05+4417:07+441 2m--190.046199mNRMoradabad, Uttar Pradesh
31/==/DLPDalpatpur  17:18+4617:20+502m--198.548195mNRNH-24, Uttar Pradesh
32/==/MPHMundha PandeX  17:27 17:28+5217:29 17:30+1:002m--1104.952191mNRNH 24, Uttar Pradesh
33/==/RMURampur Junction (3)  17:40+5917:42+1:152m--1113.635190mNRRampur, Uttar Pradesh
34/==/SARShahzad NagarO  17:53+1:1817:55+1:192m--1120.140186mNRNH 24, Uttar Pradesh
35/==/DAMDhamora  18:02 18:03+1:2018:04 18:05+1:242m--1125.441183mNRNH 24, Uttar Pradesh
36/==/DUNDuganpur  18:11 18:13+1:2218:13 18:15+1:222m--1130.850180mNRNH 24, Uttar Pradesh
37/==/MILMilak  18:22+1:2118:24+1:262m--1136.750180mNRMilak, Uttar Pradesh
38/==/NRSNagaria SadatX  18:34+1:2718:36+1:272m--1145.048177mNRNagaria Sadat, Uttar Pradesh
39/==/DANDhanetaO  18:44 18:45+1:2818:46 18:47+1:332m--1152.241174mNRNH 24, Uttar Pradesh
40/==/BTOBhitaura  18:53 18:56+1:3318:55 18:58+1:332m--1158.440173mNRFatehganj Pashchimi, Uttar Pradesh
41/==/PKRAParsa KheraX  19:02 19:06+1:3319:04 19:08+1:342m--1163.743170mNRNH 24, Uttar Pradesh
42/==/CBJClutterbuckGanjXO  19:11 19:15+1:3419:13 19:17+1:362m--1168.89172mNRBareilly, Uttar Pradesh
43/==/BEBareilly Junction (4)X  20:10+4820:20+5010m11176.638174mNRBareilly, Uttar Pradesh
44/==/CHTIChanehti Junction  20:25 20:26+1:1020:27 20:28+1:112m--1180.444168mNRBareilly, Uttar Pradesh
45/==/RYSRasuriyaX  20:35 20:37+1:0120:37 20:39+1:032m--1187.057174mNRNH 24, Uttar Pradesh
46/==/PMRPitambarpur  20:46 20:49+1:0220:48 20:51+1:022m--1196.557171mNRPitambarpur, Uttar Pradesh
47/==/TSATisua  20:57 21:00+1:0620:59 21:02+1:092m--1205.053165mNRNational Highway 24, Uttar Pradesh
48/==/BLPUBilpurX  21:07 21:10+1:0921:09 21:12+1:122m--1212.054161mNRFatehganj, Uttar Pradesh
49/==/MKMiranpur Katra  21:17 21:20+1:1221:19 21:22+1:122m--1219.242162mNRShahjahanpur, Uttar Pradesh
50/==/TLHTilharX  21:31 21:36+1:0721:33 21:38+1:142m--1229.042163mNRTilhar, Uttar Pradesh
51/==/BTRABanthraX  21:35 21:52+1:1321:37 21:54+1:192m--1238.736154mNRNH 24, Uttar Pradesh
52/==/SPNShahjahanpur Junction (3)  22:05 22:08+1:0522:10 22:13+1:155m--1247.155156mNRShahjahanpur, Uttar Pradesh
53/=-|ROZARoza Junction (4)X  22:18 22:21+1:3322:20 22:23+1:412m--1254.426156mNRShahjahanpur, Uttar Pradesh
54/==/KHKahiliyaX  22:45 22:43+1:3722:47 22:45+1:452m--1263.057152mNRSH 25, Uttar Pradesh
55/==/AIGAlgawanXO  22:56 22:54+1:4322:58 22:56+1:442m--1271.547152mNRAlgawan, Uttar Pradesh
56/==/AJIAnjhi ShahabadO  23:05 23:04+1:3823:07 23:06+1:412m--1277.864148mNRAnjhi Shahabad, Uttar Pradesh
57/==/TDPTodarpurX  23:15 23:14+1:4723:17 23:16+1:472m--1286.355147mNRSH 25, Uttar Pradesh
58/==/BEGBehtagokulX  23:24 23:23+1:4923:26 23:25+1:572m--1292.759152mNRBehtagokul, Uttar Pradesh
59/==/KUFKaurhaX  23:35 23:34+1:5723:37 23:36+2:002m--1301.650148mNRSH 25, Uttar Pradesh
60/==/HRIHardoi (5)  23:59 23:46+1:5000:01 23:48+2:032m--1310.045146mNRHardoi, Uttar Pradesh
61/==/KARKarnaX  00:14 00:01+2:1100:16 00:03+2:152m--2319.956143mNRHardoi, Uttar Pradesh
62/==/MSTMasit  00:24 00:11+2:1500:26 00:13+2:152m--2327.452141mNRSH 25, Uttar Pradesh
63/==/BGHBaghauliX  00:34 00:21+2:0600:36 00:23+2:162m--2334.358141mNRsharda nehar, Uttar Pradesh
64/==/BLMBalamau Junction (4)X  00:42 00:32+2:2700:47 00:34+2:275 2m--2343.043139mNRBalamau, Uttar Pradesh
65/==/DLQDalelnagar  00:59 00:46+2:2301:01 00:48+2:232m--2351.748136mNRSH 25, Uttar Pradesh
66/==/UTAUmar TaliX  01:08 00:56+2:2001:10 00:58+2:362m--2358.140135mNRHardoi, Uttar Pradesh
67/==/SANSandila (3)  01:17 01:06+2:2801:19 01:08+2:382m--2363.460132mNRSandila, Uttar Pradesh
68/==/RBDRahimabadX  01:31 01:19+2:4701:33 01:21+2:512m--2374.451132mNRSH 25, Uttar Pradesh
69/==/DILDilawarnagarXO  01:41 01:30+2:5101:43 01:32+2:552m--2382.043133mNRSH 25, Uttar Pradesh
70/==/MLDMalihabadX  01:50 01:40+2:5901:52 01:42+3:452m--2387.658130mNRMalihabad, Uttar Pradesh
71/==/KKJKakori (3)XO  02:01 01:52+3:1602:03 01:54+3:252m--2397.34129mNRSH 25, Uttar Pradesh
72/==/AMGAlamnagar (3)O  03:42 03:41+1:4803:43+1:561 2m--2404.819126mNRLucknow, Uttar Pradesh
73/==/LKOLucknow Charbagh NR (9)•  04:05+1:39-72411.8-123mNR226004, Uttar Pradesh
Scroll to Top
Scroll to Bottom